Date,TemperatureHighF,TemperatureAvgF,TemperatureLowF,DewpointHighF,DewpointAvgF,DewpointLowF,HumidityHigh,HumidityAvg,HumidityLow,PressureMaxIn,PressureMinIn,WindSpeedMaxMPH,WindSpeedAvgMPH,GustSpeedMaxMPH,PrecipitationSumIn
2013-12-1,61,48,38,17,10,3,28,22,16,30.22,29.78,7,-286,23,0.00
2013-12-2,68,53,45,18,14,8,27,21,13,29.83,29.42,5,-138,30,0.00
2013-12-3,54,40,18,18,8,0,44,28,19,30.05,29.39,9,-78,17,0.00
2013-12-4,18,12,4,0,-5,-12,45,45,44,30.50,30.05,3,-454,8,0.00
2013-12-5,22,6,-1,2,-13,-20,45,41,35,30.61,30.18,5,-649,9,0.00
2013-12-6,14,2,-5,-4,-17,-25,44,40,36,30.77,30.45,2,-839,6,0.00
2013-12-7,20,3,-4,1,-14,-20,48,44,43,30.74,30.29,2,-795,6,0.00
2013-12-8,34,12,1,12,-8,-16,50,41,33,30.43,29.87,3,-638,8,0.00
2013-12-9,38,15,-1,4,-10,-21,44,32,19,30.61,30.05,6,-103,19,0.00
2013-12-10,58,33,18,18,3,-6,39,28,18,30.48,29.74,5,-121,13,0.00
2013-12-11,50,26,14,21,6,-3,53,42,27,30.68,30.15,4,-607,7,0.00
2013-12-12,71,37,21,24,9,2,50,34,13,30.58,30.10,3,-658,6,0.00
2013-12-13,62,37,26,18,8,2,41,30,16,30.31,29.66,5,-627,11,0.00
2013-12-14,53,36,24,14,7,2,46,32,18,30.51,30.09,6,-543,12,0.00
2013-12-15,58,47,37,19,10,2,29,22,16,30.24,29.99,5,-194,26,0.00
2013-12-16,73,52,40,17,8,0,23,17,11,30.35,29.83,7,-117,20,0.00
2013-12-17,68,50,34,15,7,-2,24,18,12,30.43,29.95,5,-165,14,0.00
2013-12-18,75,57,48,16,9,4,17,14,10,30.03,29.50,6,-283,14,0.00
2013-12-19,60,39,18,23,8,-1,52,30,17,30.19,29.39,6,-263,16,0.00
2013-12-20,29,21,17,14,8,3,65,57,52,30.21,29.84,3,-607,6,0.00
2013-12-21,44,26,15,23,13,6,75,59,39,30.14,29.58,5,-534,10,0.00
2013-12-22,45,28,17,18,10,5,73,49,26,30.47,29.92,8,-257,15,0.00
2013-12-23,54,33,19,23,12,6,64,44,26,30.58,30.09,4,-335,15,0.00
2013-12-24,57,42,26,21,12,0,31,28,19,30.49,29.89,7,-287,20,0.00
2013-12-25,61,34,21,12,1,-7,40,26,14,30.67,30.08,5,-502,12,0.00
2013-12-26,68,46,30,14,2,-100,25,18,12,30.38,29.99,6,-333,13,0.00
2013-12-27,74,45,31,24,10,2,34,25,11,30.41,29.87,3,-880,6,0.00
2013-12-28,64,44,35,25,12,8,32,28,17,30.16,29.64,8,-569,18,0.00